[[{"header":{"parameterUnit":"m.s-1","parameterCategory":1,"la1":30.2991,"la2":30.254,"lo1":-89.0895,"lo2":-89.0444,"dy":0.0017,"dx":0.0017,"nx":28,"ny":28,"refTime":"2025-05-22T21:00:00:Z","depth":0,"parameterNumber":2,"parameterNumberName":"U-component_of_WINDS"},"data":[0,0,0,0,0,0,0,0,0,0,0,0,0,0,0,0,0,0,0,0,0,0,0,0,0,0,0,0,0,0,0,0,0,0,0,0,0,0,0,0,0,0,0,0,0,0,0,0,0,0,0,0,0,0,0,0,0,0,-0.3491,-0.3489,0,-0.3365,-0.3364,-0.3362,-0.3307,-0.3307,-0.3307,-0.3307,-0.3177,-0.3173,-0.3169,0,0,0,0,0,0,0,0,0,0,0,0,0,-0.3681,-0.3678,-0.3491,-0.3489,-0.3488,-0.3366,-0.3364,-0.3362,-0.3307,-0.3307,-0.3307,-0.3307,-0.3178,-0.3173,-0.3169,0,0,0,0,0,0,0,0,0,0,0,0,0,-0.3582,-0.3677,-0.3491,-0.3445,-0.344,-0.3366,-0.3364,-0.3362,-0.3307,-0.3307,-0.3307,-0.3307,-0.3179,-0.3174,-0.3169,-0.313,0,0,-0.3152,-0.3149,0,0,0,0,0,0,0,0,-0.3587,-0.3575,-0.3454,-0.3448,-0.3442,-0.3352,-0.3383,-0.3284,-0.3307,-0.3357,-0.3307,-0.3308,-0.3235,-0.3225,-0.32,-0.3124,-0.3118,-0.3151,-0.3148,-0.3146,-0.3144,0,0,0,0,0,0,0,-0.3594,-0.358,-0.3441,-0.3452,-0.3445,-0.3431,-0.3417,-0.3364,-0.3296,-0.3353,-0.3349,-0.3335,-0.3232,-0.3206,-0.3197,-0.3116,-0.3152,-0.3147,-0.3143,-0.3141,-0.3001,-0.3001,0,0,0,0,0,0,-0.3609,-0.3586,-0.3445,-0.3437,-0.3517,-0.3427,-0.3412,-0.3381,-0.3296,-0.3284,-0.3335,-0.3332,-0.3215,-0.3203,-0.3192,-0.3141,-0.3146,-0.3141,-0.3137,-0.3002,-0.3001,-0.3001,0,0,0,0,0,0,-0.3613,-0.3597,-0.345,-0.351,-0.3491,-0.3424,-0.3389,-0.3378,-0.3352,-0.3283,-0.327,-0.3321,-0.3215,-0.32,-0.3146,-0.3136,-0.3138,-0.3133,-0.3002,-0.3002,-0.3001,-0.3039,0,0,0,0,0,0,-0.3619,-0.3599,-0.3584,-0.351,-0.3488,-0.3407,-0.3389,-0.3375,-0.3343,-0.334,-0.3266,-0.3254,-0.3214,-0.3154,-0.314,-0.3128,-0.3129,-0.3003,-0.3002,-0.3001,-0.3039,-0.304,-0.3041,0,0,0,0,0,-0.3626,-0.3599,-0.3583,-0.3566,-0.3467,-0.3406,-0.3393,-0.3347,-0.3343,-0.3327,-0.3282,-0.3257,-0.314,-0.3149,-0.3133,-0.3119,-0.3003,-0.3002,-0.3001,-0.3038,-0.304,-0.3041,0,0,0,0,0,0,-0.3672,-0.3588,-0.357,-0.3519,-0.347,-0.3397,-0.3375,-0.3351,-0.3302,-0.33,-0.3245,-0.3229,-0.318,-0.3144,-0.3156,-0.3077,-0.3069,-0.3065,-0.3103,-0.3104,-0.3105,-0.3114,-0.3124,0,0,0,0,0,-0.3676,-0.3634,-0.3563,-0.3524,-0.3501,-0.3443,-0.3414,-0.3383,-0.3331,-0.3309,-0.3261,-0.321,-0.3161,-0.3131,-0.3082,-0.3033,-0.3016,-0.3016,-0.3017,-0.3019,-0.3015,-0.2987,-0.2986,-0.2997,-0.2997,-0.2997,0,0,-0.3684,-0.3633,-0.361,-0.3532,-0.3491,-0.3448,-0.3426,-0.3381,-0.3348,-0.3302,-0.3249,-0.3211,-0.3151,-0.31,-0.3074,-0.3068,-0.3009,-0.3017,-0.3019,-0.3015,-0.2986,-0.2985,-0.2984,-0.2997,-0.2997,-0.2997,0,0,-0.3677,-0.3634,-0.3597,-0.3557,-0.3495,-0.3456,-0.3448,-0.3378,-0.3352,-0.3298,-0.3262,-0.3223,-0.314,-0.3099,-0.3067,-0.3045,-0.302,-0.3031,-0.3038,-0.3011,-0.301,-0.3009,-0.3001,-0.2999,-0.3028,-0.3028,-0.3028,0,-0.3694,-0.3628,-0.3582,-0.3539,-0.3506,-0.3464,-0.3426,-0.3388,-0.3314,-0.3292,-0.3286,-0.3183,-0.3139,-0.3077,-0.3072,-0.3048,-0.3036,-0.3039,-0.3014,-0.3012,-0.3011,-0.3002,-0.2999,-0.303,-0.303,-0.303,-0.3029,0,-0.3653,-0.3608,-0.3586,-0.3516,-0.348,-0.3441,-0.3387,-0.3357,-0.333,-0.3292,-0.3237,-0.3183,-0.3123,-0.3107,-0.3079,-0.3041,-0.3039,-0.3025,-0.3015,-0.3012,-0.3003,-0.3,-0.3032,-0.3032,-0.3031,-0.3031,0,0,-0.367,-0.3575,-0.3568,-0.3536,-0.3465,-0.3429,-0.3388,-0.333,-0.3305,-0.3255,-0.3219,-0.3151,-0.3137,-0.3101,-0.3068,-0.3045,-0.3031,-0.3033,-0.303,-0.3034,-0.2986,-0.2997,-0.2994,-0.3014,-0.3013,-0.3013,-0.2991,0,-0.3653,-0.3577,-0.3534,-0.3476,-0.3434,-0.3393,-0.3357,-0.3309,-0.3273,-0.3232,-0.3191,-0.3144,-0.3129,-0.3107,-0.3082,-0.3038,-0.302,-0.3039,-0.2979,-0.2977,-0.2995,-0.299,-0.3001,-0.2983,-0.2987,-0.2986,-0.2986,0,-0.3622,-0.3574,-0.3512,-0.3447,-0.3427,-0.3396,-0.3339,-0.3301,-0.3246,-0.3221,-0.3182,-0.315,-0.3104,-0.3098,-0.3034,-0.3048,-0.3021,-0.2996,-0.2994,-0.2986,-0.2981,-0.2981,-0.2976,-0.2973,-0.298,-0.2981,-0.2981,0,-0.3641,-0.3561,-0.3513,-0.3487,-0.3409,-0.3388,-0.3354,-0.33,-0.3268,-0.3219,-0.3198,-0.3144,-0.3114,-0.3073,-0.3027,-0.3028,-0.2968,-0.2958,-0.2945,-0.2946,-0.2934,-0.2935,-0.2924,-0.2917,-0.2917,-0.2918,-0.2918,0,-0.3626,-0.359,-0.352,-0.3491,-0.3449,-0.34,-0.336,-0.3323,-0.3275,-0.3238,-0.3199,-0.3165,-0.3106,-0.3065,-0.3028,-0.2981,-0.2968,-0.2946,-0.2937,-0.2949,-0.2952,-0.293,-0.293,-0.2917,-0.2917,-0.2917,-0.2917,0,-0.3639,-0.3592,-0.3537,-0.3469,-0.345,-0.3423,-0.3363,-0.3333,-0.3296,-0.3249,-0.3235,-0.3175,-0.3124,-0.3075,-0.3006,-0.2981,-0.2934,-0.2922,-0.2953,-0.2947,-0.2937,-0.2939,-0.2911,-0.2905,-0.2903,-0.2904,-0.2904,0,-0.3633,-0.3604,-0.3532,-0.3505,-0.3473,-0.3429,-0.3397,-0.3347,-0.3315,-0.3251,-0.3229,-0.3175,-0.313,-0.305,-0.3,-0.2947,-0.2933,-0.2927,-0.2925,-0.2939,-0.2933,-0.2935,-0.2932,-0.2929,-0.2929,-0.2929,-0.2929,0,-0.3626,-0.3604,-0.3559,-0.3507,-0.3469,-0.3425,-0.338,-0.3359,-0.3301,-0.3267,-0.3215,-0.318,-0.311,-0.3058,-0.2999,-0.2964,-0.2937,-0.2931,-0.2925,-0.2937,-0.2956,-0.2945,-0.2956,-0.2931,-0.2931,-0.2931,-0.2931,-0.2931,-0.3629,-0.3601,-0.3547,-0.3498,-0.3459,-0.3418,-0.3387,-0.3345,-0.3301,-0.3241,-0.3215,-0.3162,-0.3108,-0.3027,-0.2993,-0.2951,-0.2944,-0.2935,-0.2933,-0.2932,-0.2934,-0.2963,-0.294,-0.294,-0.294,-0.2939,-0.2939,0,-0.362,-0.3583,-0.3539,-0.3477,-0.3439,-0.3418,-0.3367,-0.3336,-0.3291,-0.3243,-0.32,-0.314,-0.3089,-0.3035,-0.2981,-0.2957,-0.2943,-0.2945,-0.2945,-0.2938,-0.2944,-0.2954,-0.2957,-0.2957,-0.2957,-0.2957,-0.2957,-0.2957,-0.3611,-0.3563,-0.3535,-0.3468,-0.3431,-0.338,-0.3353,-0.3314,-0.3276,-0.3211,-0.3169,-0.3135,-0.3085,-0.3026,-0.2978,-0.2964,-0.2945,-0.295,-0.2932,-0.2938,-0.2937,-0.2936,-0.2946,-0.2947,-0.2947,-0.293,-0.293,-0.2929]},{"header":{"parameterUnit":"m.s-1","parameterCategory":1,"la1":30.2991,"la2":30.254,"lo1":-89.0895,"lo2":-89.0444,"dy":0.0017,"dx":0.0017,"nx":28,"ny":28,"refTime":"2025-05-22T21:00:00:Z","depth":0,"parameterNumber":3,"parameterNumberName":"V-component_of_WINDS"},"data":[0,0,0,0,0,0,0,0,0,0,0,0,0,0,0,0,0,0,0,0,0,0,0,0,0,0,0,0,0,0,0,0,0,0,0,0,0,0,0,0,0,0,0,0,0,0,0,0,0,0,0,0,0,0,0,0,0,0,4.1238,4.1237,0,4.1139,4.1138,4.1136,4.1036,4.1035,4.1033,4.1032,4.0928,4.0927,4.0925,0,0,0,0,0,0,0,0,0,0,0,0,0,4.1338,4.1336,4.1238,4.1236,4.1235,4.1139,4.1137,4.1136,4.1036,4.1035,4.1033,4.1032,4.0929,4.0927,4.0925,0,0,0,0,0,0,0,0,0,0,0,0,0,4.1272,4.1336,4.1238,4.1174,4.1167,4.1139,4.1137,4.1136,4.1037,4.1035,4.1033,4.1031,4.0929,4.0927,4.0925,4.0951,0,0,4.0918,4.0917,0,0,0,0,0,0,0,0,4.1276,4.1269,4.1185,4.1178,4.1171,4.1098,4.1134,4.1074,4.1037,4.1086,4.1032,4.103,4.0986,4.0979,4.0965,4.0946,4.0942,4.0918,4.0916,4.0915,4.0915,0,0,0,0,0,0,0,4.1281,4.1272,4.1198,4.1183,4.1175,4.1149,4.1138,4.1123,4.1048,4.1082,4.1074,4.1064,4.0982,4.0967,4.0961,4.094,4.0918,4.0916,4.0914,4.0913,4.0938,4.094,0,0,0,0,0,0,4.1295,4.1277,4.1201,4.1195,4.122,4.1149,4.1136,4.1123,4.1048,4.1035,4.1066,4.106,4.0972,4.0964,4.0957,4.0984,4.0915,4.0913,4.0912,4.0936,4.0939,4.0941,0,0,0,0,0,0,4.1298,4.129,4.1205,4.1234,4.1221,4.115,4.1136,4.1122,4.1107,4.1036,4.1022,4.1065,4.097,4.0961,4.0954,4.0979,4.0912,4.091,4.0934,4.0937,4.094,4.1037,0,0,0,0,0,0,4.1301,4.1291,4.1301,4.1235,4.122,4.1204,4.1137,4.1122,4.1104,4.1095,4.1032,4.1019,4.0968,4.0958,4.0951,4.0974,4.0908,4.0931,4.0935,4.0939,4.1031,4.1042,4.1053,0,0,0,0,0,4.1305,4.1331,4.1302,4.1293,4.1231,4.1206,4.1197,4.1139,4.1107,4.1116,4.107,4.1021,4.0977,4.0958,4.095,4.0973,4.093,4.0934,4.0939,4.1026,4.104,4.1052,0,0,0,0,0,0,4.1401,4.1322,4.1288,4.1294,4.1258,4.1189,4.1199,4.1156,4.1127,4.112,4.1047,4.1033,4.1035,4.1003,4.0983,4.0994,4.0946,4.095,4.1015,4.1028,4.1039,4.1047,4.0906,0,0,0,0,0,4.1423,4.141,4.1341,4.1353,4.1337,4.1271,4.1258,4.1216,4.1175,4.1159,4.1112,4.1074,4.1051,4.1038,4.1013,4.1025,4.101,4.1037,4.1048,4.1057,4.1061,4.1066,4.1077,4.0956,4.0956,4.0956,0,0,4.1468,4.1423,4.1419,4.1371,4.1338,4.1326,4.1259,4.1248,4.1238,4.1157,4.1148,4.1113,4.1065,4.1068,4.1067,4.1041,4.1091,4.1063,4.1071,4.107,4.1071,4.1083,4.1093,4.0959,4.0959,4.0958,0,0,4.1544,4.1509,4.1515,4.1484,4.1435,4.1391,4.1393,4.1331,4.1305,4.1295,4.1234,4.122,4.1183,4.1151,4.113,4.1195,4.1149,4.1189,4.1246,4.1251,4.1261,4.1269,4.1292,4.1302,4.1193,4.1193,4.1193,0,4.1606,4.1586,4.1524,4.1517,4.1498,4.1425,4.143,4.1402,4.1348,4.1336,4.1308,4.1259,4.1222,4.1217,4.1233,4.1218,4.1218,4.1196,4.1265,4.1272,4.1279,4.13,4.1309,4.1198,4.1198,4.1197,4.1197,0,4.1665,4.1652,4.1663,4.1613,4.1595,4.1595,4.1531,4.152,4.148,4.1439,4.143,4.1382,4.1347,4.1342,4.1302,4.1332,4.1318,4.1278,4.1229,4.1296,4.1316,4.1323,4.1206,4.1204,4.1202,4.1201,0,0,4.1799,4.1715,4.172,4.1697,4.1638,4.1626,4.1622,4.1589,4.1581,4.1545,4.154,4.1511,4.1474,4.1451,4.1406,4.1411,4.1466,4.137,4.1368,4.139,4.1496,4.1527,4.1537,4.1435,4.1436,4.1437,4.15,0,4.1865,4.1855,4.1799,4.1805,4.1792,4.1722,4.1719,4.1682,4.1644,4.1627,4.1584,4.1565,4.1517,4.1503,4.1504,4.1459,4.1486,4.1454,4.1429,4.1429,4.1444,4.1547,4.1579,4.1641,4.1507,4.1508,4.1509,0,4.1941,4.1912,4.1917,4.1859,4.1851,4.185,4.1815,4.1799,4.1756,4.1727,4.1702,4.1653,4.1644,4.1598,4.1585,4.1564,4.1551,4.1527,4.1528,4.1524,4.1474,4.1546,4.1659,4.1669,4.152,4.1519,4.1519,0,4.2039,4.2001,4.1999,4.1981,4.1913,4.1914,4.1885,4.1839,4.1823,4.1792,4.1781,4.1749,4.1731,4.1707,4.1651,4.1622,4.1645,4.1593,4.1621,4.1622,4.1629,4.1629,4.1742,4.162,4.162,4.1619,4.1619,0,4.2119,4.2125,4.2042,4.2042,4.2046,4.1981,4.1988,4.1952,4.1912,4.1903,4.184,4.1832,4.1757,4.1741,4.1696,4.1693,4.1685,4.1662,4.165,4.1668,4.1671,4.1659,4.1653,4.1622,4.1621,4.1621,4.162,0,4.2229,4.2174,4.2168,4.2104,4.2088,4.2095,4.204,4.2036,4.1994,4.1983,4.1976,4.1911,4.1888,4.1829,4.1791,4.176,4.177,4.1747,4.1785,4.1778,4.1809,4.1807,4.1917,4.1929,4.18,4.1801,4.1802,0,4.2285,4.2288,4.2225,4.2215,4.2189,4.2173,4.2156,4.2092,4.2077,4.2029,4.2031,4.2003,4.1978,4.1945,4.1894,4.1864,4.1841,4.1882,4.1836,4.1854,4.1842,4.1843,4.1843,4.1892,4.1894,4.1895,4.1896,0,4.2389,4.2361,4.234,4.231,4.2292,4.2265,4.2234,4.2228,4.2156,4.2143,4.212,4.21,4.2062,4.2036,4.1998,4.1967,4.192,4.1911,4.1916,4.1934,4.1957,4.1946,4.1813,4.1909,4.1907,4.1907,4.1906,4.1905,4.2473,4.2473,4.2429,4.2408,4.2378,4.2351,4.2345,4.2302,4.2282,4.2247,4.221,4.2191,4.2147,4.2092,4.2065,4.2049,4.2024,4.2031,4.2033,4.2036,4.2044,4.1959,4.2041,4.2041,4.204,4.204,4.204,0,4.2575,4.2543,4.2524,4.2484,4.2467,4.2424,4.2388,4.2376,4.2361,4.2325,4.2302,4.2275,4.2249,4.2196,4.2165,4.2163,4.214,4.2157,4.2157,4.2151,4.2068,4.2067,4.2176,4.2176,4.2176,4.2176,4.2176,4.2176,4.2626,4.2624,4.2591,4.2574,4.2541,4.2524,4.2506,4.2481,4.2452,4.2425,4.2404,4.237,4.2326,4.2292,4.2267,4.2252,4.2243,4.2267,4.2246,4.2169,4.2156,4.2144,4.2143,4.2266,4.2266,4.233,4.233,4.2331]}]]